owner,sensor,date,latitude,longitude,relative_humidity,qcFlag 
COMPS,ioos:station:USF.COMPS:TAR:1,2014-04-01T00:00:00Z,28.1560,-82.7580,50.09,1111122 
COMPS,ioos:station:USF.COMPS:TAR:1,2014-04-01T00:06:00Z,28.1560,-82.7580,52.77,1111122 
COMPS,ioos:station:USF.COMPS:TAR:1,2014-04-01T00:12:00Z,28.1560,-82.7580,56.73,1111122 
COMPS,ioos:station:USF.COMPS:TAR:1,2014-04-01T00:18:00Z,28.1560,-82.7580,59.32,1111122 
COMPS,ioos:station:USF.COMPS:TAR:1,2014-04-01T00:24:00Z,28.1560,-82.7580,61.71,1111122 
COMPS,ioos:station:USF.COMPS:TAR:1,2014-04-01T00:30:00Z,28.1560,-82.7580,63.38,1111122 
COMPS,ioos:station:USF.COMPS:TAR:1,2014-04-01T00:36:00Z,28.1560,-82.7580,64.8,1111122 
COMPS,ioos:station:USF.COMPS:TAR:1,2014-04-01T00:42:00Z,28.1560,-82.7580,66.23,1111122 
COMPS,ioos:station:USF.COMPS:TAR:1,2014-04-01T00:48:00Z,28.1560,-82.7580,65.65,1111122 
COMPS,ioos:station:USF.COMPS:TAR:1,2014-04-01T00:54:00Z,28.1560,-82.7580,66.8,1111122 
COMPS,ioos:station:USF.COMPS:TAR:1,2014-04-01T01:00:00Z,28.1560,-82.7580,67.65,1111122 
COMPS,ioos:station:USF.COMPS:TAR:1,2014-04-01T01:06:00Z,28.1560,-82.7580,71.06,1111122 
COMPS,ioos:station:USF.COMPS:TAR:1,2014-04-01T01:12:00Z,28.1560,-82.7580,72.34,1111122 
COMPS,ioos:station:USF.COMPS:TAR:1,2014-04-01T01:18:00Z,28.1560,-82.7580,74.26,1111122 
COMPS,ioos:station:USF.COMPS:TAR:1,2014-04-01T01:24:00Z,28.1560,-82.7580,75.18,1111122 
COMPS,ioos:station:USF.COMPS:TAR:1,2014-04-01T01:30:00Z,28.1560,-82.7580,76.7,1111122 
COMPS,ioos:station:USF.COMPS:TAR:1,2014-04-01T01:36:00Z,28.1560,-82.7580,75.93,1111122 
COMPS,ioos:station:USF.COMPS:TAR:1,2014-04-01T01:42:00Z,28.1560,-82.7580,76.22,1111122 
COMPS,ioos:station:USF.COMPS:TAR:1,2014-04-01T01:48:00Z,28.1560,-82.7580,76.98,1111122 
COMPS,ioos:station:USF.COMPS:TAR:1,2014-04-01T01:54:00Z,28.1560,-82.7580,75.18,1111122 
COMPS,ioos:station:USF.COMPS:TAR:1,2014-04-01T02:00:00Z,28.1560,-82.7580,74.19,1111122 
COMPS,ioos:station:USF.COMPS:TAR:1,2014-04-01T02:06:00Z,28.1560,-82.7580,74.89,1111122 
COMPS,ioos:station:USF.COMPS:TAR:1,2014-04-01T02:12:00Z,28.1560,-82.7580,75.19,1111122 
COMPS,ioos:station:USF.COMPS:TAR:1,2014-04-01T02:18:00Z,28.1560,-82.7580,75.35,1111122 
COMPS,ioos:station:USF.COMPS:TAR:1,2014-04-01T02:24:00Z,28.1560,-82.7580,75.87,1111122 
COMPS,ioos:station:USF.COMPS:TAR:1,2014-04-01T02:30:00Z,28.1560,-82.7580,80.11,1111122 
COMPS,ioos:station:USF.COMPS:TAR:1,2014-04-01T02:36:00Z,28.1560,-82.7580,82.19,1111122 
COMPS,ioos:station:USF.COMPS:TAR:1,2014-04-01T02:42:00Z,28.1560,-82.7580,82.49,1111122 
COMPS,ioos:station:USF.COMPS:TAR:1,2014-04-01T02:48:00Z,28.1560,-82.7580,83.25,1111122 
COMPS,ioos:station:USF.COMPS:TAR:1,2014-04-01T02:54:00Z,28.1560,-82.7580,85.73,1111122 
COMPS,ioos:station:USF.COMPS:TAR:1,2014-04-01T03:00:00Z,28.1560,-82.7580,81.55,1111122 
COMPS,ioos:station:USF.COMPS:TAR:1,2014-04-01T03:06:00Z,28.1560,-82.7580,79.53,1111122 
COMPS,ioos:station:USF.COMPS:TAR:1,2014-04-01T03:12:00Z,28.1560,-82.7580,79.19,1111122 
COMPS,ioos:station:USF.COMPS:TAR:1,2014-04-01T03:18:00Z,28.1560,-82.7580,80.26,1111122 
COMPS,ioos:station:USF.COMPS:TAR:1,2014-04-01T03:24:00Z,28.1560,-82.7580,81.47,1111122 
COMPS,ioos:station:USF.COMPS:TAR:1,2014-04-01T03:30:00Z,28.1560,-82.7580,82.53,1111122 
COMPS,ioos:station:USF.COMPS:TAR:1,2014-04-01T03:36:00Z,28.1560,-82.7580,83.35,1111122 
COMPS,ioos:station:USF.COMPS:TAR:1,2014-04-01T03:42:00Z,28.1560,-82.7580,83.38,1111122 
COMPS,ioos:station:USF.COMPS:TAR:1,2014-04-01T03:48:00Z,28.1560,-82.7580,83.03,1111122 
COMPS,ioos:station:USF.COMPS:TAR:1,2014-04-01T03:54:00Z,28.1560,-82.7580,82.73,1111122 
COMPS,ioos:station:USF.COMPS:TAR:1,2014-04-01T04:00:00Z,28.1560,-82.7580,82.64,1111122 
COMPS,ioos:station:USF.COMPS:TAR:1,2014-04-01T04:06:00Z,28.1560,-82.7580,84.01,1111122 
COMPS,ioos:station:USF.COMPS:TAR:1,2014-04-01T04:12:00Z,28.1560,-82.7580,88.19,1111122 
COMPS,ioos:station:USF.COMPS:TAR:1,2014-04-01T04:18:00Z,28.1560,-82.7580,90.11,1111122 
COMPS,ioos:station:USF.COMPS:TAR:1,2014-04-01T04:24:00Z,28.1560,-82.7580,89.21,1111122 
COMPS,ioos:station:USF.COMPS:TAR:1,2014-04-01T04:30:00Z,28.1560,-82.7580,86.65,1111122 
COMPS,ioos:station:USF.COMPS:TAR:1,2014-04-01T04:36:00Z,28.1560,-82.7580,83.67,1111122 
COMPS,ioos:station:USF.COMPS:TAR:1,2014-04-01T04:42:00Z,28.1560,-82.7580,84.31,1111122 
COMPS,ioos:station:USF.COMPS:TAR:1,2014-04-01T04:48:00Z,28.1560,-82.7580,85.54,1111122 
COMPS,ioos:station:USF.COMPS:TAR:1,2014-04-01T04:54:00Z,28.1560,-82.7580,86.36,1111122 
COMPS,ioos:station:USF.COMPS:TAR:1,2014-04-01T05:00:00Z,28.1560,-82.7580,88.68,1111122 
COMPS,ioos:station:USF.COMPS:TAR:1,2014-04-01T05:06:00Z,28.1560,-82.7580,91.6,1111122 
COMPS,ioos:station:USF.COMPS:TAR:1,2014-04-01T05:12:00Z,28.1560,-82.7580,90.37,1111122 
COMPS,ioos:station:USF.COMPS:TAR:1,2014-04-01T05:18:00Z,28.1560,-82.7580,87.8,1111122 
COMPS,ioos:station:USF.COMPS:TAR:1,2014-04-01T05:24:00Z,28.1560,-82.7580,86.32,1111122 
COMPS,ioos:station:USF.COMPS:TAR:1,2014-04-01T05:30:00Z,28.1560,-82.7580,87.19,1111122 
COMPS,ioos:station:USF.COMPS:TAR:1,2014-04-01T05:36:00Z,28.1560,-82.7580,87.49,1111122 
COMPS,ioos:station:USF.COMPS:TAR:1,2014-04-01T05:42:00Z,28.1560,-82.7580,87.75,1111122 
COMPS,ioos:station:USF.COMPS:TAR:1,2014-04-01T05:48:00Z,28.1560,-82.7580,89.87,1111122 
COMPS,ioos:station:USF.COMPS:TAR:1,2014-04-01T05:54:00Z,28.1560,-82.7580,88.78,1111122 
COMPS,ioos:station:USF.COMPS:TAR:1,2014-04-01T06:00:00Z,28.1560,-82.7580,86.98,1111122 
COMPS,ioos:station:USF.COMPS:TAR:1,2014-04-01T06:06:00Z,28.1560,-82.7580,88.43,1111122 
COMPS,ioos:station:USF.COMPS:TAR:1,2014-04-01T06:12:00Z,28.1560,-82.7580,90.07,1111122 
COMPS,ioos:station:USF.COMPS:TAR:1,2014-04-01T06:18:00Z,28.1560,-82.7580,88.76,1111122 
COMPS,ioos:station:USF.COMPS:TAR:1,2014-04-01T06:24:00Z,28.1560,-82.7580,89.9,1111122 
COMPS,ioos:station:USF.COMPS:TAR:1,2014-04-01T06:30:00Z,28.1560,-82.7580,92.26,1111122 
COMPS,ioos:station:USF.COMPS:TAR:1,2014-04-01T06:36:00Z,28.1560,-82.7580,92.63,1111122 
COMPS,ioos:station:USF.COMPS:TAR:1,2014-04-01T06:42:00Z,28.1560,-82.7580,92.87,1111122 
COMPS,ioos:station:USF.COMPS:TAR:1,2014-04-01T06:48:00Z,28.1560,-82.7580,92.36,1111122 
COMPS,ioos:station:USF.COMPS:TAR:1,2014-04-01T06:54:00Z,28.1560,-82.7580,91.54,1111122 
COMPS,ioos:station:USF.COMPS:TAR:1,2014-04-01T07:00:00Z,28.1560,-82.7580,92.09,1111122 
COMPS,ioos:station:USF.COMPS:TAR:1,2014-04-01T07:06:00Z,28.1560,-82.7580,92.37,1111122 
COMPS,ioos:station:USF.COMPS:TAR:1,2014-04-01T07:12:00Z,28.1560,-82.7580,92.38,1111122 
COMPS,ioos:station:USF.COMPS:TAR:1,2014-04-01T07:18:00Z,28.1560,-82.7580,92.14,1111122 
COMPS,ioos:station:USF.COMPS:TAR:1,2014-04-01T07:24:00Z,28.1560,-82.7580,91.87,1111122 
COMPS,ioos:station:USF.COMPS:TAR:1,2014-04-01T07:30:00Z,28.1560,-82.7580,91.39,1111122 
COMPS,ioos:station:USF.COMPS:TAR:1,2014-04-01T07:36:00Z,28.1560,-82.7580,90.33,1111122 
COMPS,ioos:station:USF.COMPS:TAR:1,2014-04-01T07:42:00Z,28.1560,-82.7580,89.57,1111122 
COMPS,ioos:station:USF.COMPS:TAR:1,2014-04-01T07:48:00Z,28.1560,-82.7580,90.61,1111122 
COMPS,ioos:station:USF.COMPS:TAR:1,2014-04-01T07:54:00Z,28.1560,-82.7580,91.84,1111122 
COMPS,ioos:station:USF.COMPS:TAR:1,2014-04-01T08:00:00Z,28.1560,-82.7580,91.97,1111122 
COMPS,ioos:station:USF.COMPS:TAR:1,2014-04-01T08:06:00Z,28.1560,-82.7580,91.6,1111122 
COMPS,ioos:station:USF.COMPS:TAR:1,2014-04-01T08:12:00Z,28.1560,-82.7580,91.03,1111122 
COMPS,ioos:station:USF.COMPS:TAR:1,2014-04-01T08:18:00Z,28.1560,-82.7580,90.58,1111122 
COMPS,ioos:station:USF.COMPS:TAR:1,2014-04-01T08:24:00Z,28.1560,-82.7580,90.45,1111122 
COMPS,ioos:station:USF.COMPS:TAR:1,2014-04-01T08:30:00Z,28.1560,-82.7580,90.24,1111122 
COMPS,ioos:station:USF.COMPS:TAR:1,2014-04-01T08:36:00Z,28.1560,-82.7580,89.78,1111122 
COMPS,ioos:station:USF.COMPS:TAR:1,2014-04-01T08:42:00Z,28.1560,-82.7580,89.08,1111122 
COMPS,ioos:station:USF.COMPS:TAR:1,2014-04-01T08:48:00Z,28.1560,-82.7580,89.04,1111122 
COMPS,ioos:station:USF.COMPS:TAR:1,2014-04-01T08:54:00Z,28.1560,-82.7580,89.54,1111122 
COMPS,ioos:station:USF.COMPS:TAR:1,2014-04-01T09:00:00Z,28.1560,-82.7580,89.97,1111122 
COMPS,ioos:station:USF.COMPS:TAR:1,2014-04-01T09:06:00Z,28.1560,-82.7580,90.14,1111122 
COMPS,ioos:station:USF.COMPS:TAR:1,2014-04-01T09:12:00Z,28.1560,-82.7580,90.41,1111122 
COMPS,ioos:station:USF.COMPS:TAR:1,2014-04-01T09:18:00Z,28.1560,-82.7580,90.74,1111122 
COMPS,ioos:station:USF.COMPS:TAR:1,2014-04-01T09:24:00Z,28.1560,-82.7580,90.74,1111122 
COMPS,ioos:station:USF.COMPS:TAR:1,2014-04-01T09:30:00Z,28.1560,-82.7580,89.71,1111122 
COMPS,ioos:station:USF.COMPS:TAR:1,2014-04-01T09:36:00Z,28.1560,-82.7580,89.34,1111122 
COMPS,ioos:station:USF.COMPS:TAR:1,2014-04-01T09:42:00Z,28.1560,-82.7580,89.7,1111122 
COMPS,ioos:station:USF.COMPS:TAR:1,2014-04-01T09:48:00Z,28.1560,-82.7580,89.84,1111122 
COMPS,ioos:station:USF.COMPS:TAR:1,2014-04-01T09:54:00Z,28.1560,-82.7580,89.83,1111122 
COMPS,ioos:station:USF.COMPS:TAR:1,2014-04-01T10:00:00Z,28.1560,-82.7580,89.87,1111122 
COMPS,ioos:station:USF.COMPS:TAR:1,2014-04-01T10:06:00Z,28.1560,-82.7580,89.84,1111122 
COMPS,ioos:station:USF.COMPS:TAR:1,2014-04-01T10:12:00Z,28.1560,-82.7580,90.11,1111122 
COMPS,ioos:station:USF.COMPS:TAR:1,2014-04-01T10:18:00Z,28.1560,-82.7580,90.21,1111122 
COMPS,ioos:station:USF.COMPS:TAR:1,2014-04-01T10:24:00Z,28.1560,-82.7580,90.14,1111122 
COMPS,ioos:station:USF.COMPS:TAR:1,2014-04-01T10:30:00Z,28.1560,-82.7580,89.95,1111122 
COMPS,ioos:station:USF.COMPS:TAR:1,2014-04-01T10:36:00Z,28.1560,-82.7580,89.98,1111122 
COMPS,ioos:station:USF.COMPS:TAR:1,2014-04-01T10:42:00Z,28.1560,-82.7580,90.04,1111122 
COMPS,ioos:station:USF.COMPS:TAR:1,2014-04-01T10:48:00Z,28.1560,-82.7580,90.4,1111122 
COMPS,ioos:station:USF.COMPS:TAR:1,2014-04-01T10:54:00Z,28.1560,-82.7580,90.53,1111122 
COMPS,ioos:station:USF.COMPS:TAR:1,2014-04-01T11:00:00Z,28.1560,-82.7580,90.0,1111122 
COMPS,ioos:station:USF.COMPS:TAR:1,2014-04-01T11:06:00Z,28.1560,-82.7580,90.73,1111122 
COMPS,ioos:station:USF.COMPS:TAR:1,2014-04-01T11:12:00Z,28.1560,-82.7580,91.04,1111122 
COMPS,ioos:station:USF.COMPS:TAR:1,2014-04-01T11:18:00Z,28.1560,-82.7580,92.09,1111122 
COMPS,ioos:station:USF.COMPS:TAR:1,2014-04-01T11:24:00Z,28.1560,-82.7580,92.42,1111122 
COMPS,ioos:station:USF.COMPS:TAR:1,2014-04-01T11:30:00Z,28.1560,-82.7580,92.84,1111122 
COMPS,ioos:station:USF.COMPS:TAR:1,2014-04-01T11:36:00Z,28.1560,-82.7580,93.12,1111122 
COMPS,ioos:station:USF.COMPS:TAR:1,2014-04-01T11:42:00Z,28.1560,-82.7580,93.4,1111122 
COMPS,ioos:station:USF.COMPS:TAR:1,2014-04-01T11:48:00Z,28.1560,-82.7580,93.39,1111122 
COMPS,ioos:station:USF.COMPS:TAR:1,2014-04-01T11:54:00Z,28.1560,-82.7580,93.26,1111122 
COMPS,ioos:station:USF.COMPS:TAR:1,2014-04-01T12:00:00Z,28.1560,-82.7580,93.05,1111122 
COMPS,ioos:station:USF.COMPS:TAR:1,2014-04-01T12:06:00Z,28.1560,-82.7580,90.57,1111122 
COMPS,ioos:station:USF.COMPS:TAR:1,2014-04-01T12:12:00Z,28.1560,-82.7580,86.95,1111122 
COMPS,ioos:station:USF.COMPS:TAR:1,2014-04-01T12:18:00Z,28.1560,-82.7580,83.89,1111122 
COMPS,ioos:station:USF.COMPS:TAR:1,2014-04-01T12:24:00Z,28.1560,-82.7580,81.31,1111122 
COMPS,ioos:station:USF.COMPS:TAR:1,2014-04-01T12:30:00Z,28.1560,-82.7580,79.36,1111122 
COMPS,ioos:station:USF.COMPS:TAR:1,2014-04-01T12:36:00Z,28.1560,-82.7580,78.64,1111122 
COMPS,ioos:station:USF.COMPS:TAR:1,2014-04-01T12:42:00Z,28.1560,-82.7580,77.76,1111122 
COMPS,ioos:station:USF.COMPS:TAR:1,2014-04-01T12:48:00Z,28.1560,-82.7580,74.09,1111122 
COMPS,ioos:station:USF.COMPS:TAR:1,2014-04-01T12:54:00Z,28.1560,-82.7580,70.04,1111122 
COMPS,ioos:station:USF.COMPS:TAR:1,2014-04-01T13:00:00Z,28.1560,-82.7580,66.18,1111122 
COMPS,ioos:station:USF.COMPS:TAR:1,2014-04-01T13:06:00Z,28.1560,-82.7580,62.29,1111122 
COMPS,ioos:station:USF.COMPS:TAR:1,2014-04-01T13:12:00Z,28.1560,-82.7580,62.22,1111122 
COMPS,ioos:station:USF.COMPS:TAR:1,2014-04-01T13:18:00Z,28.1560,-82.7580,60.68,1111122 
COMPS,ioos:station:USF.COMPS:TAR:1,2014-04-01T13:24:00Z,28.1560,-82.7580,56.27,1111122 
COMPS,ioos:station:USF.COMPS:TAR:1,2014-04-01T13:30:00Z,28.1560,-82.7580,56.05,1111122 
COMPS,ioos:station:USF.COMPS:TAR:1,2014-04-01T13:36:00Z,28.1560,-82.7580,55.94,1111122 
COMPS,ioos:station:USF.COMPS:TAR:1,2014-04-01T13:42:00Z,28.1560,-82.7580,55.72,1111122 
COMPS,ioos:station:USF.COMPS:TAR:1,2014-04-01T13:48:00Z,28.1560,-82.7580,55.17,1111122 
COMPS,ioos:station:USF.COMPS:TAR:1,2014-04-01T13:54:00Z,28.1560,-82.7580,53.5,1111122 
COMPS,ioos:station:USF.COMPS:TAR:1,2014-04-01T14:00:00Z,28.1560,-82.7580,53.97,1111122 
COMPS,ioos:station:USF.COMPS:TAR:1,2014-04-01T14:06:00Z,28.1560,-82.7580,54.11,1111122 
COMPS,ioos:station:USF.COMPS:TAR:1,2014-04-01T14:12:00Z,28.1560,-82.7580,52.42,1111122 
COMPS,ioos:station:USF.COMPS:TAR:1,2014-04-01T14:18:00Z,28.1560,-82.7580,52.84,1111122 
COMPS,ioos:station:USF.COMPS:TAR:1,2014-04-01T14:24:00Z,28.1560,-82.7580,53.13,1111122 
COMPS,ioos:station:USF.COMPS:TAR:1,2014-04-01T14:30:00Z,28.1560,-82.7580,52.23,1111122 
COMPS,ioos:station:USF.COMPS:TAR:1,2014-04-01T14:36:00Z,28.1560,-82.7580,52.85,1111122 
COMPS,ioos:station:USF.COMPS:TAR:1,2014-04-01T14:42:00Z,28.1560,-82.7580,50.24,1111122 
COMPS,ioos:station:USF.COMPS:TAR:1,2014-04-01T14:48:00Z,28.1560,-82.7580,49.71,1111122 
COMPS,ioos:station:USF.COMPS:TAR:1,2014-04-01T14:54:00Z,28.1560,-82.7580,48.32,1111122 
COMPS,ioos:station:USF.COMPS:TAR:1,2014-04-01T15:00:00Z,28.1560,-82.7580,47.45,1111122 
COMPS,ioos:station:USF.COMPS:TAR:1,2014-04-01T15:06:00Z,28.1560,-82.7580,45.48,1111122 
COMPS,ioos:station:USF.COMPS:TAR:1,2014-04-01T15:12:00Z,28.1560,-82.7580,45.59,1111122 
COMPS,ioos:station:USF.COMPS:TAR:1,2014-04-01T15:18:00Z,28.1560,-82.7580,44.28,1111122 
COMPS,ioos:station:USF.COMPS:TAR:1,2014-04-01T15:24:00Z,28.1560,-82.7580,42.79,1111122 
COMPS,ioos:station:USF.COMPS:TAR:1,2014-04-01T15:30:00Z,28.1560,-82.7580,41.65,1111122 
COMPS,ioos:station:USF.COMPS:TAR:1,2014-04-01T15:36:00Z,28.1560,-82.7580,40.43,1111122 
COMPS,ioos:station:USF.COMPS:TAR:1,2014-04-01T15:42:00Z,28.1560,-82.7580,39.1,1111122 
COMPS,ioos:station:USF.COMPS:TAR:1,2014-04-01T15:48:00Z,28.1560,-82.7580,37.45,1111122 
COMPS,ioos:station:USF.COMPS:TAR:1,2014-04-01T15:54:00Z,28.1560,-82.7580,35.74,1111122 
COMPS,ioos:station:USF.COMPS:TAR:1,2014-04-01T16:00:00Z,28.1560,-82.7580,34.74,1111122 
COMPS,ioos:station:USF.COMPS:TAR:1,2014-04-01T16:06:00Z,28.1560,-82.7580,34.95,1111122 
COMPS,ioos:station:USF.COMPS:TAR:1,2014-04-01T16:12:00Z,28.1560,-82.7580,34.74,1111122 
COMPS,ioos:station:USF.COMPS:TAR:1,2014-04-01T16:18:00Z,28.1560,-82.7580,32.58,1111122 
COMPS,ioos:station:USF.COMPS:TAR:1,2014-04-01T16:24:00Z,28.1560,-82.7580,34.62,1111122 
COMPS,ioos:station:USF.COMPS:TAR:1,2014-04-01T16:30:00Z,28.1560,-82.7580,36.79,1111122 
COMPS,ioos:station:USF.COMPS:TAR:1,2014-04-01T16:36:00Z,28.1560,-82.7580,35.94,1111122 
COMPS,ioos:station:USF.COMPS:TAR:1,2014-04-01T16:42:00Z,28.1560,-82.7580,39.51,1111122 
COMPS,ioos:station:USF.COMPS:TAR:1,2014-04-01T16:48:00Z,28.1560,-82.7580,39.22,1111122 
COMPS,ioos:station:USF.COMPS:TAR:1,2014-04-01T16:54:00Z,28.1560,-82.7580,38.43,1111122 
COMPS,ioos:station:USF.COMPS:TAR:1,2014-04-01T17:00:00Z,28.1560,-82.7580,38.56,1111122 
COMPS,ioos:station:USF.COMPS:TAR:1,2014-04-01T17:06:00Z,28.1560,-82.7580,40.18,1111122 
COMPS,ioos:station:USF.COMPS:TAR:1,2014-04-01T17:12:00Z,28.1560,-82.7580,39.07,1111122 
COMPS,ioos:station:USF.COMPS:TAR:1,2014-04-01T17:18:00Z,28.1560,-82.7580,39.48,1111122 
COMPS,ioos:station:USF.COMPS:TAR:1,2014-04-01T17:24:00Z,28.1560,-82.7580,39.31,1111122 
COMPS,ioos:station:USF.COMPS:TAR:1,2014-04-01T17:30:00Z,28.1560,-82.7580,39.43,1111122 
COMPS,ioos:station:USF.COMPS:TAR:1,2014-04-01T17:36:00Z,28.1560,-82.7580,38.12,1111122 
COMPS,ioos:station:USF.COMPS:TAR:1,2014-04-01T17:42:00Z,28.1560,-82.7580,36.59,1111122 
COMPS,ioos:station:USF.COMPS:TAR:1,2014-04-01T17:48:00Z,28.1560,-82.7580,35.43,1111122 
COMPS,ioos:station:USF.COMPS:TAR:1,2014-04-01T17:54:00Z,28.1560,-82.7580,35.68,1111122 
COMPS,ioos:station:USF.COMPS:TAR:1,2014-04-01T18:00:00Z,28.1560,-82.7580,36.08,1111122 
COMPS,ioos:station:USF.COMPS:TAR:1,2014-04-01T18:06:00Z,28.1560,-82.7580,35.84,1111122 
COMPS,ioos:station:USF.COMPS:TAR:1,2014-04-01T18:12:00Z,28.1560,-82.7580,35.32,1111122 
COMPS,ioos:station:USF.COMPS:TAR:1,2014-04-01T18:18:00Z,28.1560,-82.7580,36.01,1111122 
COMPS,ioos:station:USF.COMPS:TAR:1,2014-04-01T18:24:00Z,28.1560,-82.7580,38.08,1111122 
COMPS,ioos:station:USF.COMPS:TAR:1,2014-04-01T18:30:00Z,28.1560,-82.7580,38.31,1111122 
COMPS,ioos:station:USF.COMPS:TAR:1,2014-04-01T18:36:00Z,28.1560,-82.7580,38.58,1111122 
COMPS,ioos:station:USF.COMPS:TAR:1,2014-04-01T18:42:00Z,28.1560,-82.7580,38.79,1111122 
COMPS,ioos:station:USF.COMPS:TAR:1,2014-04-01T18:48:00Z,28.1560,-82.7580,37.69,1111122 
COMPS,ioos:station:USF.COMPS:TAR:1,2014-04-01T18:54:00Z,28.1560,-82.7580,36.17,1111122 
COMPS,ioos:station:USF.COMPS:TAR:1,2014-04-01T19:00:00Z,28.1560,-82.7580,37.41,1111122 
COMPS,ioos:station:USF.COMPS:TAR:1,2014-04-01T19:06:00Z,28.1560,-82.7580,36.87,1111122 
COMPS,ioos:station:USF.COMPS:TAR:1,2014-04-01T19:12:00Z,28.1560,-82.7580,35.8,1111122 
COMPS,ioos:station:USF.COMPS:TAR:1,2014-04-01T19:18:00Z,28.1560,-82.7580,36.27,1111122 
COMPS,ioos:station:USF.COMPS:TAR:1,2014-04-01T19:24:00Z,28.1560,-82.7580,36.28,1111122 
COMPS,ioos:station:USF.COMPS:TAR:1,2014-04-01T19:30:00Z,28.1560,-82.7580,36.39,1111122 
COMPS,ioos:station:USF.COMPS:TAR:1,2014-04-01T19:36:00Z,28.1560,-82.7580,35.83,1111122 
COMPS,ioos:station:USF.COMPS:TAR:1,2014-04-01T19:42:00Z,28.1560,-82.7580,36.64,1111122 
COMPS,ioos:station:USF.COMPS:TAR:1,2014-04-01T19:48:00Z,28.1560,-82.7580,37.49,1111122 
COMPS,ioos:station:USF.COMPS:TAR:1,2014-04-01T19:54:00Z,28.1560,-82.7580,37.42,1111122 
COMPS,ioos:station:USF.COMPS:TAR:1,2014-04-01T20:00:00Z,28.1560,-82.7580,38.6,1111122 
COMPS,ioos:station:USF.COMPS:TAR:1,2014-04-01T20:06:00Z,28.1560,-82.7580,37.56,1111122 
COMPS,ioos:station:USF.COMPS:TAR:1,2014-04-01T20:12:00Z,28.1560,-82.7580,36.02,1111122 
COMPS,ioos:station:USF.COMPS:TAR:1,2014-04-01T20:18:00Z,28.1560,-82.7580,37.91,1111122 
COMPS,ioos:station:USF.COMPS:TAR:1,2014-04-01T20:24:00Z,28.1560,-82.7580,38.01,1111122 
COMPS,ioos:station:USF.COMPS:TAR:1,2014-04-01T20:30:00Z,28.1560,-82.7580,37.88,1111122 
COMPS,ioos:station:USF.COMPS:TAR:1,2014-04-01T20:36:00Z,28.1560,-82.7580,39.87,1111122 
COMPS,ioos:station:USF.COMPS:TAR:1,2014-04-01T20:42:00Z,28.1560,-82.7580,39.32,1111122 
COMPS,ioos:station:USF.COMPS:TAR:1,2014-04-01T20:48:00Z,28.1560,-82.7580,39.35,1111122 
COMPS,ioos:station:USF.COMPS:TAR:1,2014-04-01T20:54:00Z,28.1560,-82.7580,40.53,1111122 
COMPS,ioos:station:USF.COMPS:TAR:1,2014-04-01T21:00:00Z,28.1560,-82.7580,41.31,1111122 
COMPS,ioos:station:USF.COMPS:TAR:1,2014-04-01T21:06:00Z,28.1560,-82.7580,42.76,1111122 
COMPS,ioos:station:USF.COMPS:TAR:1,2014-04-01T21:12:00Z,28.1560,-82.7580,42.1,1111122 
COMPS,ioos:station:USF.COMPS:TAR:1,2014-04-01T21:18:00Z,28.1560,-82.7580,41.93,1111122 
COMPS,ioos:station:USF.COMPS:TAR:1,2014-04-01T21:24:00Z,28.1560,-82.7580,42.71,1111122 
COMPS,ioos:station:USF.COMPS:TAR:1,2014-04-01T21:30:00Z,28.1560,-82.7580,43.84,1111122 
COMPS,ioos:station:USF.COMPS:TAR:1,2014-04-01T21:36:00Z,28.1560,-82.7580,46.43,1111122 
COMPS,ioos:station:USF.COMPS:TAR:1,2014-04-01T21:42:00Z,28.1560,-82.7580,45.47,1111122 
COMPS,ioos:station:USF.COMPS:TAR:1,2014-04-01T21:48:00Z,28.1560,-82.7580,45.62,1111122 
COMPS,ioos:station:USF.COMPS:TAR:1,2014-04-01T21:54:00Z,28.1560,-82.7580,45.98,1111122 
COMPS,ioos:station:USF.COMPS:TAR:1,2014-04-01T22:00:00Z,28.1560,-82.7580,46.73,1111122 
COMPS,ioos:station:USF.COMPS:TAR:1,2014-04-01T22:06:00Z,28.1560,-82.7580,47.95,1111122 
COMPS,ioos:station:USF.COMPS:TAR:1,2014-04-01T22:12:00Z,28.1560,-82.7580,49.98,1111122 
COMPS,ioos:station:USF.COMPS:TAR:1,2014-04-01T22:18:00Z,28.1560,-82.7580,50.45,1111122 
COMPS,ioos:station:USF.COMPS:TAR:1,2014-04-01T22:24:00Z,28.1560,-82.7580,51.21,1111122 
COMPS,ioos:station:USF.COMPS:TAR:1,2014-04-01T22:30:00Z,28.1560,-82.7580,51.06,1111122 
COMPS,ioos:station:USF.COMPS:TAR:1,2014-04-01T22:36:00Z,28.1560,-82.7580,51.41,1111122 
COMPS,ioos:station:USF.COMPS:TAR:1,2014-04-01T22:42:00Z,28.1560,-82.7580,50.32,1111122 
COMPS,ioos:station:USF.COMPS:TAR:1,2014-04-01T22:48:00Z,28.1560,-82.7580,52.19,1111122 
COMPS,ioos:station:USF.COMPS:TAR:1,2014-04-01T22:54:00Z,28.1560,-82.7580,54.25,1111122 
COMPS,ioos:station:USF.COMPS:TAR:1,2014-04-01T23:00:00Z,28.1560,-82.7580,55.88,1111122 
COMPS,ioos:station:USF.COMPS:TAR:1,2014-04-01T23:06:00Z,28.1560,-82.7580,56.13,1111122 
COMPS,ioos:station:USF.COMPS:TAR:1,2014-04-01T23:12:00Z,28.1560,-82.7580,57.1,1111122 
COMPS,ioos:station:USF.COMPS:TAR:1,2014-04-01T23:18:00Z,28.1560,-82.7580,58.36,1111122 
COMPS,ioos:station:USF.COMPS:TAR:1,2014-04-01T23:24:00Z,28.1560,-82.7580,59.68,1111122 
COMPS,ioos:station:USF.COMPS:TAR:1,2014-04-01T23:30:00Z,28.1560,-82.7580,61.61,1111122 
COMPS,ioos:station:USF.COMPS:TAR:1,2014-04-01T23:36:00Z,28.1560,-82.7580,63.58,1111122 
COMPS,ioos:station:USF.COMPS:TAR:1,2014-04-01T23:42:00Z,28.1560,-82.7580,65.12,1111122 
COMPS,ioos:station:USF.COMPS:TAR:1,2014-04-01T23:48:00Z,28.1560,-82.7580,66.78,1111122 
COMPS,ioos:station:USF.COMPS:TAR:1,2014-04-01T23:54:00Z,28.1560,-82.7580,68.35,1111122 
COMPS,ioos:station:USF.COMPS:TAR:1,2014-04-02T00:00:00Z,28.1560,-82.7580,70.71,1111122 
COMPS,ioos:station:USF.COMPS:TAR:1,2014-04-02T00:06:00Z,28.1560,-82.7580,71.7,1111122 
COMPS,ioos:station:USF.COMPS:TAR:1,2014-04-02T00:12:00Z,28.1560,-82.7580,72.6,1111122 
COMPS,ioos:station:USF.COMPS:TAR:1,2014-04-02T00:18:00Z,28.1560,-82.7580,73.85,1111122 
COMPS,ioos:station:USF.COMPS:TAR:1,2014-04-02T00:24:00Z,28.1560,-82.7580,74.17,1111122 
COMPS,ioos:station:USF.COMPS:TAR:1,2014-04-02T00:30:00Z,28.1560,-82.7580,74.93,1111122 
COMPS,ioos:station:USF.COMPS:TAR:1,2014-04-02T00:36:00Z,28.1560,-82.7580,75.84,1111122 
COMPS,ioos:station:USF.COMPS:TAR:1,2014-04-02T00:42:00Z,28.1560,-82.7580,76.74,1111122 
COMPS,ioos:station:USF.COMPS:TAR:1,2014-04-02T00:48:00Z,28.1560,-82.7580,78.2,1111122 
COMPS,ioos:station:USF.COMPS:TAR:1,2014-04-02T00:54:00Z,28.1560,-82.7580,79.66,1111122 
COMPS,ioos:station:USF.COMPS:TAR:1,2014-04-02T01:00:00Z,28.1560,-82.7580,80.69,1111122 
COMPS,ioos:station:USF.COMPS:TAR:1,2014-04-02T01:06:00Z,28.1560,-82.7580,80.23,1111122 
COMPS,ioos:station:USF.COMPS:TAR:1,2014-04-02T01:12:00Z,28.1560,-82.7580,80.4,1111122 
COMPS,ioos:station:USF.COMPS:TAR:1,2014-04-02T01:18:00Z,28.1560,-82.7580,80.63,1111122 
COMPS,ioos:station:USF.COMPS:TAR:1,2014-04-02T01:24:00Z,28.1560,-82.7580,82.02,1111122 
COMPS,ioos:station:USF.COMPS:TAR:1,2014-04-02T01:30:00Z,28.1560,-82.7580,81.62,1111122 
COMPS,ioos:station:USF.COMPS:TAR:1,2014-04-02T01:36:00Z,28.1560,-82.7580,81.96,1111122 
COMPS,ioos:station:USF.COMPS:TAR:1,2014-04-02T01:42:00Z,28.1560,-82.7580,82.46,1111122 
COMPS,ioos:station:USF.COMPS:TAR:1,2014-04-02T01:48:00Z,28.1560,-82.7580,83.08,1111122 
COMPS,ioos:station:USF.COMPS:TAR:1,2014-04-02T01:54:00Z,28.1560,-82.7580,83.91,1111122 
COMPS,ioos:station:USF.COMPS:TAR:1,2014-04-02T02:00:00Z,28.1560,-82.7580,83.56,1111122 
COMPS,ioos:station:USF.COMPS:TAR:1,2014-04-02T02:06:00Z,28.1560,-82.7580,84.11,1111122 
COMPS,ioos:station:USF.COMPS:TAR:1,2014-04-02T02:12:00Z,28.1560,-82.7580,84.36,1111122 
COMPS,ioos:station:USF.COMPS:TAR:1,2014-04-02T02:18:00Z,28.1560,-82.7580,84.41,1111122 
COMPS,ioos:station:USF.COMPS:TAR:1,2014-04-02T02:24:00Z,28.1560,-82.7580,85.25,1111122 
COMPS,ioos:station:USF.COMPS:TAR:1,2014-04-02T02:30:00Z,28.1560,-82.7580,85.88,1111122 
COMPS,ioos:station:USF.COMPS:TAR:1,2014-04-02T02:36:00Z,28.1560,-82.7580,85.12,1111122 
COMPS,ioos:station:USF.COMPS:TAR:1,2014-04-02T02:42:00Z,28.1560,-82.7580,85.81,1111122 
COMPS,ioos:station:USF.COMPS:TAR:1,2014-04-02T02:48:00Z,28.1560,-82.7580,85.75,1111122 
COMPS,ioos:station:USF.COMPS:TAR:1,2014-04-02T02:54:00Z,28.1560,-82.7580,85.55,1111122 
COMPS,ioos:station:USF.COMPS:TAR:1,2014-04-02T03:00:00Z,28.1560,-82.7580,86.61,1111122 
COMPS,ioos:station:USF.COMPS:TAR:1,2014-04-02T03:06:00Z,28.1560,-82.7580,87.73,1111122 